Location: Chuathbaluk
(61.5726°N, 159.2454°W)
Time: 17:12:42
(UTC+00:00)

ITAMSAT 1 - Pass Details

Date: 21 January 2021
Orbit: 784 x 796 km, 98.9° (Epoch: 05 March)

Event Time Altitude Azimuth Distance (km) Brightness Sun altitude
Rises 04:27:25 0° 179° (S) 3,275 11.0 -15.0°
Reaches altitude 10° 04:29:49 10° 185° (S) 2,349 10.4 -15.2°
Maximum altitude 04:34:50 48° 260° (W) 1,029 8.7 -15.8°
Drops below altitude 10° 04:39:51 10° 334° (NNW) 2,359 10.3 -16.4°
Sets 04:42:17 0° 341° (NNW) 3,292 11.0 -16.7°
